Location: Bern�tre
(50.1974°N, 2.0915°E)
Time: 02:32:16
(UTC+00:00)

Cosmos 1782 Rocket - Pass Details

Date: 18 September 2020
Orbit: 607 x 632 km, 82.5° (Epoch: 24 October)

Event Time Altitude Azimuth Distance (km) Brightness Sun altitude
Rises 18:42:50 0° 182° (S) 2,883 6.9 -8.0°
Reaches altitude 10° 18:45:02 10° 181° (S) 1,986 6.0 -8.3°
Maximum altitude 18:49:25 72° 98° (E) 662 3.5 -9.0°
Drops below altitude 10° 18:53:53 10° 14° (NNE) 2,018 6.2 -9.7°
Sets 18:56:08 0° 12° (NNE) 2,933 7.1 -10.0°
